Regional Weather Roundup
Issued by NWS

Current Version | Previous Version | Text Only | Print | Product List | Glossary On
Versions: 1 2 3 4 5 6 7 8 9 10 11 12 13 14 15 16 17 18 19 20 21 22 23 24 25 26 27 28 29 30 31 32 33 34 35 36 37 38 39 40 41 42 43 44 45 46 47 48 49 50
000
ASUS44 KOUN 201110
RWROK

WEATHER ROUNDUP FOR OKLAHOMA
NATIONAL WEATHER SERVICE NORMAN OK
500 AM CST MON FEB 20 2017

NOTE: "FAIR" INDICATES FEW OR NO CLOUDS BELOW 12,000 FEET WITH NO
      SIGNIFICANT WEATHER AND/OR OBSTRUCTIONS TO VISIBILITY.

OKZ001>007-009>012-014-015-017-201200-
NORTHWEST OKLAHOMA AND THE PANHANDLE

CITY           SKY/WX    TMP DP  RH WIND       PRES   REMARKS
GAGE           CLOUDY    54  44  69 S15       29.75S
GUYMON         CLOUDY    44  30  57 W12       29.74S
ENID/WOODRING  CLOUDY    55  55 100 SE9       29.79R
$$

OKZ016-021>023-033>039-044-045-201200-
SOUTHWEST OKLAHOMA

CITY           SKY/WX    TMP DP  RH WIND       PRES   REMARKS
LAWTON/REGL    CLOUDY    55  52  89 S5        29.82R
LAWTON/FT SILL MOCLDY    55  55 100 SW5       29.80R
FREDERICK      CLOUDY    54  53  97 S9        29.79S
CLINTON        CLOUDY    53  49  86 S13       29.81S
HOBART         CLOUDY    54  51  90 S9        29.82F
ALTUS AFB      PTCLDY    52  50  93 E3        29.81R
$$

OKZ018>020-024>031-201200-
CENTRAL OKLAHOMA

CITY           SKY/WX    TMP DP  RH WIND       PRES   REMARKS
OKLAHOMA CITY  CLOUDY    55  54  96 SE14      29.83F
OKC/WILEY POST LGT RAIN  57  55  93 SE16      29.81F
OKC/TINKER AFB LGT RAIN  54  54 100 SE8       29.83F
STILLWATER     LGT RAIN  57  55  93 S8        29.83R
GUTHRIE        LGT RAIN  56  54  93 S10       29.84R
$$

OKZ008-013-054>072-201200-
NORTHEAST OKLAHOMA

CITY           SKY/WX    TMP DP  RH WIND       PRES   REMARKS
TULSA          LGT RAIN  61  60  97 SW9       29.83R
TULSA/JONES    LGT RAIN  61  58  90 SW7       29.87R
BARTLESVILLE   LGT RAIN  60  58  92 S7        29.85R
MUSKOGEE       TSTM      61  60  97 W13       29.89R FOG
$$

OKZ032-040>043-046>053-073>077-201200-
SOUTH CENTRAL/SOUTHEAST OKLAHOMA

CITY           SKY/WX    TMP DP  RH WIND       PRES   REMARKS
ARDMORE/DWNTWN LGT RAIN  54  54 100 E7        29.83F
MCALESTER      LGT RAIN  59  55  87 SW9       29.95R
$$





USA.gov is the U.S. government's official web portal to all federal, state and local government web resources and services.